Location: Csohesd
(46.2500°N, 22.6167°E)
Time: 02:37:29
(UTC+00:00)

CZ-2D R/B - Pass Details

Date: 21 October 2021
Orbit: 519 x 537 km, 97.4° (Epoch: 30 November)

Event Time Altitude Azimuth Distance (km) Brightness Sun altitude
Rises 16:13:28 0° 164° (SSE) 2,660 6.7 -7.8°
Reaches altitude 10° 16:15:33 10° 164° (SSE) 1,778 5.8 -8.1°
Maximum altitude 16:19:24 84° 78° (ENE) 544 3.2 -8.8°
Drops below altitude 10° 16:23:18 10° 349° (N) 1,802 6.0 -9.5°
Sets 16:25:25 0° 349° (NNW) 2,700 6.9 -9.8°
